カタログに戻る

STARLINK-37568

運用中通信SSO
NORAD 69492·PAYLOAD·🇺🇸 United States

打ち上げ Jun 11, 2026 から Vandenberg Space Force Base

Loading…

次のパス (今後24時間)

TLE

最新Source: CelesTrak SupGP

元期: Sep 14, 2026, 23:16 UTC

1 69492C 26131Q   26257.96993056  .00036530  00000+0  11339-2 0  2574
2 69492  97.2832 278.9412 0000973  76.0398 213.1264 15.33424796    12

AllMySatでSTARLINK-37568をリアルタイム追跡

Download on the App Store